Regional Weather Roundup
Issued by NWS

Home | Current Version | Previous Version | Graphics & Text | Print | Product List | Glossary On
Versions: 1 2 3 4 5 6 7 8 9 10 11 12 13 14 15 16 17 18 19 20 21 22 23 24 25 26 27 28 29 30 31 32 33 34 35 36 37 38 39 40 41 42 43 44 45 46 47 48 49 50
000
ASUS43 KFSD 210210
RWRSD

WEATHER ROUNDUP FOR SOUTH DAKOTA
NATIONAL WEATHER SERVICE SIOUX FALLS SD
800 PM CST SAT DEC 20 2014

NOTE: "FAIR" INDICATES FEW OR NO CLOUDS BELOW 12,000 FEET WITH NO
SIGNIFICANT WEATHER AND/OR OBSTRUCTIONS TO VISIBILITY.


SDZ001>005-009-010-012>017-210300-
NORTHWEST AND NORTH CENTRAL SOUTH DAKOTA

CITY           SKY/WX    TMP DP  RH WIND       PRES   REMARKS
BUFFALO          N/A     33  24  69 W10       29.75F WCI  25
FAITH            N/A     35  25  66 W8        29.84F WCI  29
MOBRIDGE       PTCLDY    28  25  88 SE12      29.82F WCI  18
$$

SDZ012>016-024>037-041>051-057-063-072>074-210300-
SOUTHWEST AND SOUTH CENTRAL SOUTH DAKOTA

CITY           SKY/WX    TMP DP  RH WIND       PRES   REMARKS
RAPID CTY ARPT PTCLDY    29  24  82 CALM      29.87S
PIERRE         PTCLDY    19  17  92 CALM      29.88F FOG
CUSTER         PTCLDY    29  20  69 W3        29.85F
ELLSWORTH AFB  MOCLDY    38  26  62 CALM      29.86S
PHILIP         PTCLDY    30  23  75 W8        29.88S WCI  22
PINE RIDGE     PTCLDY    26  21  81 NE3       29.89F
SPEARFISH      FAIR      30  23  74 S5        29.85F WCI  25
WINNER         FAIR      33  26  75 SW6       29.90S WCI  28
$$

SDZ004>011-016>023-039-040-210300-
NORTHEAST SOUTH DAKOTA

CITY           SKY/WX    TMP DP  RH WIND       PRES   REMARKS
ABERDEEN       CLOUDY    30  28  92 S15       29.92F FOG     WCI  19
WATERTOWN      CLOUDY    29  28  96 S18       29.93S FOG     WCI  16
SISSETON         N/A     31  30  96 S15       29.92  WCI  20
$$

SDZ017-020-022-023-036>040-048>070-210300-
SOUTHEAST SOUTH DAKOTA

CITY           SKY/WX    TMP DP  RH WIND       PRES   REMARKS
SIOUX FALLS    CLOUDY    30  29  96 S15       29.99F FOG     WCI  19
HURON          CLOUDY    30  29  96 S12       29.94F FOG     WCI  20
CHAMBERLAIN    PTCLDY    22  20  94 SE5       29.91F WCI  16
MITCHELL       CLOUDY    32  31  96 S12       29.97F FOG     WCI  23
YANKTON        CLOUDY    30  28  93 SE14      30.01R WCI  20
$$

ABBREVIATIONS USED IN REMARKS
   TC - TEMPERATURE IN CELSIUS
  WCI - WIND CHILL INDEX
   HX - HEAT INDEX
  VSB - VISIBILITY



USA.gov is the U.S. government's official web portal to all federal, state and local government web resources and services.